Tracking 30692 objects as of 17-Jun-2025
HD Live streaming from Space Station
objects crossing your sky now

ONEWEB-0582

Track ONEWEB-0582 now!
10-day predictions
ONEWEB-0582 is classified as:


NORAD ID: 54649
Int'l Code: 2022-166H
Perigee: 1,183.9 km
Apogee: 1,185.9 km
Inclination: 87.9 °
Period: 108.9 minutes
Semi major axis: 7555 km
RCS: Unknown
Launch date: December 8, 2022
Source: United Kingdom (UK)
Launch site: AIR FORCE EASTERN TEST RANGE (AFETR)
Your satellite tracking list
Your tracking list is empty




NASA's NSSDC Master Catalog

Two Line Element Set (TLE):
1 54649U 22166H   25167.36536028  .00000033  00000-0  48521-4 0  9999
2 54649  87.9240 316.9518 0001326  90.5032 269.6254 13.21826076123190
Source of the keplerian elements: AFSPC